Location: Unspecified
(0.0000°N, 0.0000°E)
Time: 04:30:51
(UTC+00:00)

Hubble Space Telescope - Visible Passes

Search period start: 03 September 2015 00:00
Search period end: 13 September 2015 00:00
Orbit: 541 x 545 km, 28.5° (Epoch: 01 September)

Date Brightness Start Highest point End Pass type
(mag) Time Alt. Az. Time Alt. Az. Time Alt. Az.
10 Sep 3.4 19:36:16 10° S 19:36:23 10° S 19:36:23 10° S visible
11 Sep 2.8 19:26:41 10° SSW 19:28:23 18° S 19:28:23 18° S visible
12 Sep 1.9 19:17:19 10° SSW 19:20:26 29° SSE 19:20:26 29° SSE visible
